Regional Weather Roundup
Issued by NWS

Home | Current Version | Previous Version | Text Only | Print | Product List | Glossary On
Versions: 1 2 3 4 5 6 7 8 9 10 11 12 13 14 15 16 17 18 19 20 21 22 23 24 25 26 27 28 29 30 31 32 33 34 35 36 37 38 39 40 41 42 43 44 45 46 47 48 49 50
000
ASUS43 KMKX 170821
RWRWI

WISCONSIN REGIONAL WEATHER ROUNDUP
NATIONAL WEATHER SERVICE MILWAUKEE/SULLIVAN WI
300 AM CDT TUE OCT 17 2017

NOTE: "FAIR" INDICATES FEW OR NO CLOUDS BELOW 12,000 FEET WITH NO
SIGNIFICANT WEATHER AND/OR OBSTRUCTIONS TO VISIBILITY.

WIZ001-002-006>008-014>016-023>028-170900-
NORTHWEST WISCONSIN

CITY           SKY/WX    TMP DP  RH WIND       PRES   REMARKS
SUPERIOR ARPT  CLOUDY    44  38  78 SW7       29.91S
ASHLAND        PTCLDY    50  37  61 SW10      29.91R
HAYWARD        CLOUDY    42  36  79 CALM      29.95R
SIREN          CLOUDY    49  37  63 SW3       29.95R
CUMBERLAND     CLEAR     41  36  81 S3        29.96S
RICE LAKE      CLEAR     40  36  87 CALM      29.98S
CHETEK         CLEAR     41  40  95 CALM      29.97S
LADYSMITH      CLOUDY    41  36  81 CALM      29.99R
EAU CLAIRE     CLOUDY    42  38  85 SW3       29.98S
MENOMONIE      CLOUDY    50  38  65 SW5       29.98S
NEW RICHMOND   CLEAR     47  37  67 S3        29.97S
OSCEOLA        CLEAR     41  37  84 CALM      29.99S
$$

WIZ003>005-009-010-017-018-170900-
NORTH CENTRAL WISCONSIN

CITY           SKY/WX    TMP DP  RH WIND       PRES   REMARKS
MANITOWISH WTR CLEAR     47  36  65 SW8       29.93F
ARBOR VITAE    CLEAR     42  36  79 S5        29.94F
WOODRUFF       CLEAR     42  36  79 S5        29.94F
RHINELANDER    CLOUDY    46  37  71 SW9       29.97S
EAGLE RIVER    CLEAR     44  34  66 SW9       29.94S
LAND O LAKES   CLEAR     45  36  70 SW3       29.95S
PHILLIPS       CLOUDY    48  37  65 SW6       29.96S
TOMAHAWK       CLOUDY    44  36  71 CALM      29.98R
MEDFORD        CLOUDY    46  36  69 SW6       29.98F
MERRILL        CLOUDY    45  36  71 W3        29.99S
$$

WIZ029-030-035-036-043>047-170900-
CENTRAL WISCONSIN

CITY           SKY/WX    TMP DP  RH WIND       PRES   REMARKS
WAUSAU         CLOUDY    46  37  71 VRB5      29.98S
MOSINEE        CLOUDY    45  37  76 SW8       30.01S
MARSHFIELD     CLOUDY    44  35  70 SW7       30.00S
STEVENS POINT  CLOUDY    44  35  72 SW6       30.02S
WAUPACA        PTCLDY    48  38  68 S7        30.02F
WAUTOMA        CLOUDY    38  36  92 S3          N/A
WISC RAPIDS    PTCLDY    47  39  74 SW5       30.02F
CAMP DOUGLAS   CLEAR     55  38  52 SW13G18   30.02F
$$

WIZ011>013-019>022-031-037>040-048>050-170900-
NORTHEAST WISCONSIN

CITY           SKY/WX    TMP DP  RH WIND       PRES   REMARKS
ANTIGO         CLOUDY    45  36  70 SW8       29.99S
SHAWANO        CLOUDY    49  37  63 SW3       30.00S
OCONTO         CLOUDY    50  37  59 SW9       29.99F
STURGEON BAY   CLOUDY    52  38  58 SW14      30.00F
GREEN BAY      CLOUDY    51  41  68 S9        30.02F
MANITOWOC      CLEAR     53  37  54 SW10      30.05F
APPLETON       CLOUDY    48  34  57 SW14      30.02F
CLINTONVILLE   CLOUDY    48  37  66 SW8       30.01F
OSHKOSH        CLEAR     49  38  65 S15       30.04F
$$

WIZ032>034-041-042-053>061-170900-
SOUTHWEST WISCONSIN

CITY           SKY/WX    TMP DP  RH WIND       PRES   REMARKS
LA CROSSE      CLEAR     53  42  66 E6        30.03S
SPARTA         CLEAR     53  39  59 S6        30.03F
VIROQUA        CLEAR     49  40  70 CALM      30.06S
BOSCOBEL       CLEAR     43  39  86 SW3       30.10F
PRAIRIE DU CHI CLEAR     53  38  56 CALM      30.09F
PLATTEVILLE    CLEAR     49  40  71 S8        30.13S
$$

WIZ056-057-062-063-064-067-068-170900-
SOUTH CENTRAL WISCONSIN

CITY           SKY/WX    TMP DP  RH WIND       PRES   REMARKS
REEDSBURG      CLEAR     50  38  61 S5        30.06F
BARABOO/DELLS  CLEAR     52  36  54 SW13      30.06F
LONE ROCK      CLEAR     44  39  82 CALM      30.10F
MINERAL POINT  CLOUDY    48  39  71 S7        30.12S
MADISON        CLEAR     52  38  58 SW7       30.10F
MIDDLETON      CLEAR     53  37  55 SW14      30.10F
WATERTOWN      CLEAR     48  40  73 SW8       30.11F
MONROE         CLOUDY    45  37  76 SW13      30.13S
JANESVILLE     CLEAR     46  36  66 S6        30.15S
$$

WIZ051-052-058>065-066-070>072-170900-
SOUTHEAST WISCONSIN

CITY           SKY/WX    TMP DP  RH WIND       PRES   REMARKS
MILWAUKEE      PTCLDY    49  38  65 SW10      30.14S
WAUKESHA       CLEAR     45  36  70 S6        30.14F
MILWAUKEE/TIMM CLEAR     48  34  57 SW9       30.13F
RACINE         CLEAR     49  38  65 SW9       30.16F
BURLINGTON     CLEAR     39  39 100 CALM      30.15F
KENOSHA        CLEAR     47  38  71 SW7       30.16S
FOND DU LAC    CLEAR     52  36  54 SW12G21   30.07F
SHEBOYGAN      CLEAR     52  39  61 SW12      30.07F
WEST BEND      CLEAR     54  34  47 SW14G20   30.10F
JUNEAU         CLEAR     47  38  71 S8        30.11F
$$

LSZ147-162-170900-
LAKE SUPERIOR

STATION/POSITION TIME  TEMP    WIND        PRES    WAVE
                       AIR SEA DIR/SP/G            HT/PER
                 (UTC) (F)     (DEG/KT/KT) (MB)    (FT/S)
W MID LAKE BUOY  0750   54 53              1010.7R   3/ 5
DEVILS ISLAND    0800   56     250/ 17/ 20 1011.7R
SAXON HARBOR     0740   55     290/  8/ 15 1012.2R
$$

LMZ867-665-643>646-170900-
LAKE MICHIGAN

STATION/POSITION TIME  TEMP    WIND        PRES    WAVE
                       AIR SEA DIR/SP/G            HT/PER
                 (UTC) (F)     (DEG/KT/KT) (MB)    (FT/S)
S GREEN BAY BUOY 0800   56 58  210/ 19/ 25 1015.1
N MID LAKE BUOY  0750   59 60  210/ 25/ 31 1015.2F   6/ 6
NORTHPORT PIER   0740   53     180/  4/  9 1014.9F
KEWAUNEE LAKESHO 0754   51     220/  9/ 14 1016.0F
SHEBOYGAN LAKESH 0800   51     210/  9/ 11 1018.3F
PORT WASHINGTON  0730   48     200/  3/  5 1020.7F
MILWAUKEE LAKESH 0800   52     240/ 12/ 14   N/A
S MID LAKE BUOY  0750   60 62  250/ 17/ 19 1021.6F   4/ 5
KENOSHA   LAKESH 0800   52     230/ 10/ 16 1021.3
$$

TC  - TEMPERATURE IN CELSIUS
VSB - VISIBILITY IN STATUTE MILES
WCI - WIND CHILL INDEX
HX  - HEAT INDEX




USA.gov is the U.S. government's official web portal to all federal, state and local government web resources and services.